User: anonymous   Login
Location: Oshawa
(43.9000°N, 78.8670°W)
Time: 13:38:47
(UTC-04:00)
Language:

Cosmos 1707 Rocket - Orbit

View from above orbital plane
View from above orbital plane
View from above satellite
View from above satellite

Ground track
Ground track

The orbit data is extracted from the following two-line orbital elements,

1 16327U 85113B   18113.22894347  .00000073  00000-0  59819-5 0  9997
2 16327  82.5344 162.5598 0020218  49.3947  14.7856 14.83398617747843
Epoch (UTC): 23 April 2018 05:29:40
Eccentricity: 0.0020218
inclination: 82.5344°
perigee height: 604 km
apogee height: 633 km
right ascension of ascending node: 162.5598°
argument of perigee: 49.3947°
revolutions per day: 14.83398617
mean anomaly at epoch: 14.7856°
orbit number at epoch: 74784

The dashed part of the orbit path shows where the satellite is in the earth's shadow,  

DLR